Location: Iowa City
(41.6610°N, 91.5300°W)
Time: 23:39:31
(UTC-06:00)

ISS - Visible Passes

Search period start: 27 November 2014 00:00
Search period end: 07 December 2014 00:00
Orbit: 407 x 417 km, 51.6° (Epoch: 27 November)

Date Brightness Start Highest point End Pass type
(mag) Time Alt. Az. Time Alt. Az. Time Alt. Az.
27 Nov 0.3 04:14:57 10° E 04:14:57 10° E 04:14:57 10° E visible
27 Nov -3.0 05:47:47 33° W 05:48:53 50° SW 05:52:05 10° SE visible
28 Nov -1.9 05:00:16 37° SE 05:00:16 37° SE 05:02:24 10° SE visible
28 Nov -0.9 06:34:35 10° WSW 06:35:15 11° SW 06:35:55 10° SW visible
29 Nov -1.6 05:45:38 19° SW 05:45:38 19° SW 05:48:00 10° S visible
30 Nov -0.7 04:58:12 15° SSE 04:58:12 15° SSE 04:58:52 10° SSE visible
06 Dec -1.1 18:11:54 10° S 18:13:13 15° SSE 18:13:13 15° SSE visible
